コワルスキー彗星

C/2016 Q4 ( Kowalski )

English version
Home page
Updated on October 14, 2023

---------------------------------------------------------------------

・ プロフィール

発見日 2016年8月30日
発見光度 18.7等
発見者 R. A. Kowalski (Mount Lemmon)

・ 写真集

・ 軌道要素

Epoch 2018 Feb. 11.0 TT = JDT 2458160.5
T 2018 Jan. 26.61482 TT                                 MPCW
q   7.0860323            (2000.0)            P               Q
n   0.01429662     Peri.   99.39288     +0.97472666     -0.18428512
a  16.8130724      Node   271.30277     +0.12054137     +0.90976993
e   0.5785403      Incl.    7.25664     +0.18808967     +0.37196460
P  68.94
From 72 observations 2016 July 11-Nov. 19, mean residual 0".6.

・ 光度変化

        m1 = 6.5 + 5 logΔ + 10.0 log r

---------------------------------------------------------------------

軌道要素はM.P.E.C. 2017-A77に掲載されたものです。
光度グラフはComet for Windowsで作成したものです。

---------------------------------------------------------------------

Copyright(C) Seiichi Yoshida (comet@aerith.net). All rights reserved.